Dewpoint
47 43 41 43 44 43 39 37 36 37 39 35 34 33 32 34 40 45 47 48 51 52 53 53 53 55 55 57 57 58 59 60 60 60 60 60 60 61 61 61 61 61 58 56
43 40 42 45 45 44 40 38 39 40 41 38 38 37 37 36 34 39 41 46 48 49 49 51 52 53 54 54 56 57 58 59 60 60 59 60 60 60 60 59 59 57 53 53
39 40 45 44 44 42 42 38 39 38 41 41 40 37 35 35 29 32 38 39 47 50 49 40 38 42 50 49 52 56 57 57 58 58 57 56 52 52 52 53 54 54 53 53
41 42 44 43 41 42 39 42 41 39 38 36 41 35 38 33 34 30 36 36 28 29 26 26 27 32 35 36 39 41 43 45 48 52 53 53 53 53 51 51 51 52 52 53
39 40 42 41 40 41 39 40 39 40 37 34 36 35 37 34 36 34 27 24 25 27 29 30 31 33 35 38 39 39 39 39 42 44 46 49 49 49 49 49 49 50 51 51
34 37 41 42 43 41 42 39 38 37 37 31 33 36 31 39 39 39 36 20 26 28 31 33 35 36 37 38 39 40 40 40 42 42 43 45 46 46 47 47 49 49 49 49
35 36 35 42 40 42 40 36 29 28 28 27 27 30 30 27 32 43 41 35 34 32 34 35 35 36 37 38 39 39 39 39 41 41 42 44 44 44 45 45 47 48 48 48
30 29 35 37 38 37 38 33 28 20 23 23 26 29 29 24 20 21 24 26 31 33 34 35 35 36 36 37 38 38 39 39 40 40 40 41 42 43 44 46 47 48 48 49
30 30 36 33 35 37 36 32 28 21 20 22 20 19 22 23 23 24 25 29 30 32 34 34 34 35 36 37 38 38 38 39 38 39 40 40 40 40 42 44 46 47 48 48
32 29 34 36 35 36 32 29 26 24 12 11 10 11 10 20 24 26 27 28 30 32 33 33 33 33 34 35 36 37 37 38 38 39 39 39 39 39 40 41 42 44 45 45
30 29 31 36 32 34 27 21 22 22 21 14 8 2 18 20 25 25 26 28 30 31 31 31 31 32 33 33 34 35 36 37 37 38 38 39 39 39 39 39 40 41 43 43
36 31 28 29 32 33 28 22 19 19 15 16 16 15 25 25 25 26 26 27 30 31 30 30 31 31 31 32 32 34 34 34 35 35 37 37 38 38 37 37 38 39 39 40
36 27 26 29 31 30 29 27 23 23 21 18 14 14 24 24 25 26 28 30 29 29 28 29 30 30 31 31 31 32 33 32 32 33 34 34 34 35 35 36 36 36 37 37
37 30 23 19 21 27 28 26 23 22 20 20 13 19 21 24 26 28 29 29 27 27 27 28 29 30 30 29 28 30 30 29 29 30 31 32 33 33 33 34 34 34 35 35
36 23 28 29 29 28 27 26 26 24 22 16 18 19 22 28 27 27 29 27 25 26 27 28 28 28 27 26 26 29 28 28 28 28 29 30 31 30 31 31 32 32 32 32
35 30 27 25 26 28 27 28 29 27 27 26 28 28 27 26 23 27 26 25 26 27 28 27 27 27 27 25 26 27 26 27 27 27 28 29 28 27 27 27 28 29 30 31
32 30 27 23 26 23 24 27 29 30 30 28 27 27 22 20 23 26 25 25 27 28 29 27 27 27 27 25 27 25 25 27 26 26 26 26 25 24 24 25 25 25 26 28
30 28 26 23 24 16 21 18 27 27 24 22 21 21 21 23 27 27 26 25 27 29 28 27 28 27 26 26 24 24 25 25 25 25 23 23 23 23 23 23 23 23 24 25
28 25 19 21 9 14 12 15 24 27 22 21 19 20 20 27 26 26 27 27 28 28 28 27 26 26 24 24 24 24 24 24 23 21 21 22 23 22 22 21 21 22 24 24
22 19 20 10 8 6 12 19 21 20 18 20 21 20 19 21 16 21 26 27 26 26 27 25 24 24 22 22 23 22 21 21 19 19 20 21 21 21 20 20 21 22 23 23
8 7 6 1 -2 5 13 18 20 14 18 20 21 22 21 17 16 24 25 25 25 25 23 23 22 20 20 22 21 19 18 17 17 18 18 19 19 19 19 20 21 21 22 23
11 8 4 1 -2 -3 14 20 11 17 23 22 22 23 23 25 25 24 25 24 23 20 21 21 19 17 18 19 17 16 15 15 16 16 16 16 17 17 17 19 19 20 21 21
10 13 12 13 12 15 21 23 25 23 22 22 25 26 25 25 24 24 23 22 20 19 20 20 17 15 15 16 15 14 13 14 14 14 13 14 15 16 17 16 17 17 19 20
19 21 20 19 18 20 22 26 25 22 24 26 25 25 25 23 23 22 20 19 18 18 17 16 14 13 13 14 14 13 13 13 11 10 11 12 12 12 13 14 15 16 17 18
18 20 16 17 20 21 21 22 25 25 25 24 23 22 21 21 19 19 17 15 14 15 13 13 12 12 11 11 11 11 11 10 9 9 9 10 10 9 10 11 13 15 17 18
20 18 17 15 19 19 21 24 25 23 22 21 20 18 18 17 16 14 13 12 13 10 10 10 9 9 8 8 8 8 7 6 6 6 7 7 7 7 8 9 10 14 16 18
Lifted_Index
3 3 2 2 1 1 1 1 1 2 3 2 2 1 0 0 0 0 -0 -1 -1 -2 -2 -2 -2 -2 -2 -2 -2 -2 -2 -2 -2 -2 -2 -1 -1 -1 -1 -1 -1 -1 -1 -0
3 3 3 2 2 1 1 1 2 2 3 2 2 1 0 0 0 0 -0 -1 -1 -1 -2 -2 -2 -2 -2 -1 -1 -2 -2 -2 -2 -2 -2 -2 -1 -1 -1 -1 -1 -1 -1 -0
3 3 3 3 2 1 1 2 2 2 2 2 2 1 1 1 1 1 0 -0 -1 -1 -1 -1 -1 -1 -1 -1 -1 -1 -1 -2 -2 -1 -1 -1 -1 -1 -0 0 0 1 1 1
3 3 3 3 2 2 2 2 2 2 2 2 2 1 1 1 1 2 2 1 1 0 1 1 1 1 1 1 0 -0 -0 -0 -0 0 0 1 2 2 3 3 3 3 3 3
3 3 3 3 3 3 3 3 3 2 2 2 1 1 1 1 2 3 4 4 3 3 4 4 4 5 5 5 4 4 4 4 4 4 5 5 6 6 6 6 6 6 6 6
2 3 3 3 3 3 3 3 2 2 2 1 1 1 1 2 2 3 4 5 5 5 6 6 7 8 9 9 8 8 8 8 8 9 9 9 9 9 9 8 8 8 8 8
2 3 3 3 3 3 3 2 2 1 1 1 2 2 2 4 4 5 5 6 7 7 7 7 7 9 10 10 10 10 10 10 10 11 11 10 10 10 10 10 9 9 9 9
3 3 2 2 2 3 2 2 1 1 1 2 2 3 3 5 6 6 6 7 8 8 8 8 8 9 10 10 10 10 10 10 10 10 10 10 10 10 10 10 10 10 9 9
2 2 2 2 2 2 2 2 2 2 1 1 2 3 4 5 6 6 7 8 8 9 9 9 9 9 9 9 9 10 10 10 10 10 10 10 10 10 10 9 9 9 9 9
1 1 1 2 2 2 2 2 2 2 1 1 1 3 4 6 6 6 7 8 9 9 9 9 8 8 8 8 9 9 9 10 10 10 10 10 9 9 9 9 9 9 9 9
1 1 1 1 2 2 2 3 3 2 2 1 1 3 5 7 7 7 8 8 8 8 8 8 7 7 7 8 8 9 9 10 10 10 10 10 9 9 9 9 8 8 8 8
2 1 0 1 2 3 3 3 3 3 2 2 2 3 6 7 7 7 7 7 7 7 7 7 7 7 7 8 8 9 9 10 10 10 10 10 10 9 9 9 9 8 8 8
2 1 1 1 2 3 3 4 4 4 3 3 3 4 6 7 7 6 6 6 5 5 6 6 7 7 7 8 8 9 10 10 10 11 11 11 11 10 10 9 9 8 7 7
2 2 1 1 2 3 3 3 4 4 4 3 4 5 5 6 5 5 5 4 4 4 5 6 6 6 7 8 9 10 10 11 12 12 12 12 11 11 10 9 9 8 8 7
2 2 2 2 2 3 3 3 4 4 4 4 4 5 5 5 4 4 4 3 3 3 4 5 5 6 7 8 9 10 11 12 12 13 12 12 11 11 10 10 9 9 9 9
2 2 2 2 2 2 3 3 4 4 4 4 4 4 4 4 3 3 3 3 3 3 4 5 6 7 8 9 10 11 12 12 13 13 13 12 12 12 12 12 11 12 12 11
1 1 1 1 1 2 2 3 4 4 4 4 4 3 3 3 3 2 3 3 3 4 5 7 8 9 10 11 11 12 12 13 13 13 13 13 13 13 13 13 13 13 13 13
2 1 1 1 1 1 2 2 3 3 3 3 2 2 2 2 2 3 3 4 5 6 8 9 10 11 11 12 12 13 13 14 14 14 14 14 14 14 14 14 14 14 13 13
2 2 1 1 1 1 1 2 2 2 2 2 2 1 1 1 2 3 5 7 8 9 10 11 11 12 12 13 13 14 14 14 14 14 14 14 14 14 14 14 14 14 14 14
3 3 2 2 1 1 2 3 3 3 2 2 2 1 1 2 2 4 7 9 10 11 11 12 12 13 13 14 14 14 14 15 15 15 15 15 15 15 15 15 15 15 15 15
3 3 3 2 2 2 3 4 4 3 3 3 3 3 3 4 5 7 9 10 11 11 12 13 13 14 14 15 15 14 14 15 15 15 15 15 16 16 16 17 17 17 16 16
4 4 4 3 3 4 5 5 5 5 5 5 6 6 6 7 9 10 11 11 11 12 12 13 14 14 14 14 14 14 14 15 16 16 16 17 17 18 18 18 18 18 17 17
7 7 6 5 6 7 8 7 7 7 7 8 8 8 9 9 10 11 11 11 12 12 13 14 14 14 14 14 14 14 15 16 17 18 18 18 19 19 19 19 18 18 18 17
8 8 8 7 8 9 9 9 8 8 8 8 9 9 9 10 10 10 11 11 12 13 13 14 13 13 13 14 15 16 17 18 19 19 19 19 20 20 19 19 19 19 18 18
8 8 8 8 8 9 9 9 9 8 8 9 9 9 10 10 10 11 11 12 13 13 13 13 13 13 14 16 18 19 19 20 20 20 20 20 20 20 20 20 19 19 19 19
8 7 7 7 8 8 8 8 8 8 9 9 9 9 10 10 11 11 12 13 13 13 13 13 14 15 16 17 19 20 20 20 20 20 20 20 20 20 20 20 19 19 19 19